[Date Prev][Date Next][Thread Prev][Thread Next] - [Date Index][Thread Index][Author Index]

2 LIne ISS Keps 11-23



ISS
1 25544U 98067A   02327.19879693  .00034218  00000-0  42554-3 0  4071
2 25544  51.6379 334.5750 0013430 167.2243 287.2696 15.59529708228773


----
Via the sarex mailing list at AMSAT.ORG courtesy of AMSAT-NA.
To unsubscribe, send "unsubscribe sarex" to Majordomo@amsat.org



AMSAT Top AMSAT Home